Year,Month,Day,Hour,Minute,Value (Times are PST for temperature in C)
2014,08,10,00,00,16.60
2014,08,10,00,01,16.60
2014,08,10,00,02,16.50
2014,08,10,00,03,16.50
2014,08,10,00,04,16.50
2014,08,10,00,05,16.50
2014,08,10,00,06,16.50
2014,08,10,00,07,16.50
2014,08,10,00,08,16.40
2014,08,10,00,09,16.40
2014,08,10,00,10,16.40
2014,08,10,00,11,16.40
2014,08,10,00,12,16.40
2014,08,10,00,13,16.40
2014,08,10,00,14,16.40
2014,08,10,00,15,16.40
2014,08,10,00,16,16.40
2014,08,10,00,17,16.40
2014,08,10,00,18,16.40
2014,08,10,00,19,16.40
2014,08,10,00,20,16.40
2014,08,10,00,21,16.30
2014,08,10,00,22,16.30
2014,08,10,00,23,16.30
2014,08,10,00,24,16.30
2014,08,10,00,25,16.30
2014,08,10,00,26,16.30
2014,08,10,00,27,16.30
2014,08,10,00,28,16.30
2014,08,10,00,29,16.30
2014,08,10,00,30,16.30
2014,08,10,00,31,16.30
2014,08,10,00,32,16.30
2014,08,10,00,33,16.20
2014,08,10,00,34,16.20
2014,08,10,00,35,16.20
2014,08,10,00,36,16.20
2014,08,10,00,37,16.20
2014,08,10,00,38,16.20
2014,08,10,00,39,16.20
2014,08,10,00,40,16.10
2014,08,10,00,41,16.10
2014,08,10,00,42,16.10
2014,08,10,00,43,16.10
2014,08,10,00,44,16.10
2014,08,10,00,45,16.10
2014,08,10,00,46,16.10
2014,08,10,00,47,16.10
2014,08,10,00,48,16.10
2014,08,10,00,49,16.10
2014,08,10,00,50,16.10
2014,08,10,00,51,16.10
2014,08,10,00,52,16.00
2014,08,10,00,53,16.00
2014,08,10,00,54,16.00
2014,08,10,00,55,16.00
2014,08,10,00,56,16.00
2014,08,10,00,57,16.00
2014,08,10,00,58,15.90
2014,08,10,00,59,15.90
2014,08,10,01,00,15.90
2014,08,10,01,01,15.90
2014,08,10,01,02,15.90
2014,08,10,01,03,15.80
2014,08,10,01,04,15.80
2014,08,10,01,05,15.80
2014,08,10,01,06,15.80
2014,08,10,01,07,15.80
2014,08,10,01,08,15.80
2014,08,10,01,09,15.80
2014,08,10,01,10,15.80
2014,08,10,01,11,15.80
2014,08,10,01,12,15.80
2014,08,10,01,13,15.70
2014,08,10,01,14,15.70
2014,08,10,01,15,15.70
2014,08,10,01,16,15.70
2014,08,10,01,17,15.70
2014,08,10,01,18,15.70
2014,08,10,01,19,15.70
2014,08,10,01,20,15.60
2014,08,10,01,21,15.60
2014,08,10,01,22,15.60
2014,08,10,01,23,15.60
2014,08,10,01,24,15.60
2014,08,10,01,25,15.60
2014,08,10,01,26,15.60
2014,08,10,01,27,15.60
2014,08,10,01,28,15.60
2014,08,10,01,29,15.60
2014,08,10,01,30,15.50
2014,08,10,01,31,15.50
2014,08,10,01,32,15.50
2014,08,10,01,33,15.50
2014,08,10,01,34,15.40
2014,08,10,01,35,15.40
2014,08,10,01,36,15.40
2014,08,10,01,37,15.40
2014,08,10,01,38,15.40
2014,08,10,01,39,15.40
2014,08,10,01,40,15.40
2014,08,10,01,41,15.40
2014,08,10,01,42,15.40
2014,08,10,01,43,15.40
2014,08,10,01,44,15.40
2014,08,10,01,45,15.40
2014,08,10,01,46,15.40
2014,08,10,01,47,15.40
2014,08,10,01,48,15.40
2014,08,10,01,49,15.40
2014,08,10,01,50,15.40
2014,08,10,01,51,15.40
2014,08,10,01,52,15.40
2014,08,10,01,53,15.30
2014,08,10,01,54,15.30
2014,08,10,01,55,15.30
2014,08,10,01,56,15.30
2014,08,10,01,57,15.30
2014,08,10,01,58,15.30
2014,08,10,01,59,15.30
2014,08,10,02,00,15.30
2014,08,10,02,01,15.30
2014,08,10,02,02,15.30
2014,08,10,02,03,15.30
2014,08,10,02,04,15.30
2014,08,10,02,05,15.30
2014,08,10,02,06,15.30
2014,08,10,02,07,15.30
2014,08,10,02,08,15.20
2014,08,10,02,09,15.20
2014,08,10,02,10,15.20
2014,08,10,02,11,15.20
2014,08,10,02,12,15.20
2014,08,10,02,13,15.20
2014,08,10,02,14,15.20
2014,08,10,02,15,15.10
2014,08,10,02,16,15.10
2014,08,10,02,17,15.10
2014,08,10,02,18,15.10
2014,08,10,02,19,15.10
2014,08,10,02,20,15.10
2014,08,10,02,21,15.10
2014,08,10,02,22,15.10
2014,08,10,02,23,15.10
2014,08,10,02,24,15.10
2014,08,10,02,25,15.00
2014,08,10,02,26,15.00
2014,08,10,02,27,15.00
2014,08,10,02,28,15.00
2014,08,10,02,29,14.90
2014,08,10,02,30,14.90
2014,08,10,02,31,14.90
2014,08,10,02,32,14.90
2014,08,10,02,33,14.90
2014,08,10,02,34,14.90
2014,08,10,02,35,14.90
2014,08,10,02,36,14.80
2014,08,10,02,37,14.80
2014,08,10,02,38,14.80
2014,08,10,02,39,14.80
2014,08,10,02,40,14.80
2014,08,10,02,41,14.80
2014,08,10,02,42,14.80
2014,08,10,02,43,14.80
2014,08,10,02,44,14.80
2014,08,10,02,45,14.80
2014,08,10,02,46,14.80
2014,08,10,02,47,14.80
2014,08,10,02,48,14.70
2014,08,10,02,49,14.70
2014,08,10,02,50,14.70
2014,08,10,02,51,14.70
2014,08,10,02,52,14.70
2014,08,10,02,53,14.70
2014,08,10,02,54,14.70
2014,08,10,02,55,14.70
2014,08,10,02,56,14.70
2014,08,10,02,57,14.60
2014,08,10,02,58,14.60
2014,08,10,02,59,14.60
2014,08,10,03,00,14.60
2014,08,10,03,01,14.60
2014,08,10,03,02,14.60
2014,08,10,03,03,14.60
2014,08,10,03,04,14.60
2014,08,10,03,05,14.60
2014,08,10,03,06,14.60
2014,08,10,03,07,14.60
2014,08,10,03,08,14.50
2014,08,10,03,09,14.50
2014,08,10,03,10,14.50
2014,08,10,03,11,14.50
2014,08,10,03,12,14.50
2014,08,10,03,13,14.40
2014,08,10,03,14,14.40
2014,08,10,03,15,14.40
2014,08,10,03,16,14.40
2014,08,10,03,17,14.40
2014,08,10,03,18,14.30
2014,08,10,03,19,14.30
2014,08,10,03,20,14.30
2014,08,10,03,21,14.30
2014,08,10,03,22,14.30
2014,08,10,03,23,14.30
2014,08,10,03,24,14.20
2014,08,10,03,25,14.20
2014,08,10,03,26,14.20
2014,08,10,03,27,14.20
2014,08,10,03,28,14.20
2014,08,10,03,29,14.10
2014,08,10,03,30,14.10
2014,08,10,03,31,14.10
2014,08,10,03,32,14.10
2014,08,10,03,33,14.10
2014,08,10,03,34,14.10
2014,08,10,03,35,14.10
2014,08,10,03,36,14.10
2014,08,10,03,37,14.00
2014,08,10,03,38,14.00
2014,08,10,03,39,14.00
2014,08,10,03,40,14.00
2014,08,10,03,41,13.90
2014,08,10,03,42,13.90
2014,08,10,03,43,13.90
2014,08,10,03,44,13.90
2014,08,10,03,45,13.90
2014,08,10,03,46,13.90
2014,08,10,03,47,13.80
2014,08,10,03,48,13.80
2014,08,10,03,49,13.80
2014,08,10,03,50,13.80
2014,08,10,03,51,13.80
2014,08,10,03,52,13.80
2014,08,10,03,53,13.80
2014,08,10,03,54,13.80
2014,08,10,03,55,13.80
2014,08,10,03,56,13.80
2014,08,10,03,57,13.70
2014,08,10,03,58,13.70
2014,08,10,03,59,13.70
2014,08,10,04,00,13.70
2014,08,10,04,01,13.70
2014,08,10,04,02,13.70
2014,08,10,04,03,13.70
2014,08,10,04,04,13.70
2014,08,10,04,05,13.60
2014,08,10,04,06,13.60
2014,08,10,04,07,13.60
2014,08,10,04,08,13.60
2014,08,10,04,09,13.60
2014,08,10,04,10,13.70
2014,08,10,04,11,13.70
2014,08,10,04,12,13.60
2014,08,10,04,13,13.60
2014,08,10,04,14,13.60
2014,08,10,04,15,13.60
2014,08,10,04,16,13.60
2014,08,10,04,17,13.60
2014,08,10,04,18,13.60
2014,08,10,04,19,13.60
2014,08,10,04,20,13.60
2014,08,10,04,21,13.60
2014,08,10,04,22,13.60
2014,08,10,04,23,13.60
2014,08,10,04,24,13.60
2014,08,10,04,25,13.70
2014,08,10,04,26,13.70
2014,08,10,04,27,13.60
2014,08,10,04,28,13.60
2014,08,10,04,29,13.60
2014,08,10,04,30,13.60
2014,08,10,04,31,13.60
2014,08,10,04,32,13.60
2014,08,10,04,33,13.60
2014,08,10,04,34,13.60
2014,08,10,04,35,13.60
2014,08,10,04,36,13.60
2014,08,10,04,37,13.60
2014,08,10,04,38,13.60
2014,08,10,04,39,13.50
2014,08,10,04,40,13.50
2014,08,10,04,41,13.50
2014,08,10,04,42,13.50
2014,08,10,04,43,13.50
2014,08,10,04,44,13.50
2014,08,10,04,45,13.40
2014,08,10,04,46,13.40
2014,08,10,04,47,13.40
2014,08,10,04,48,13.40
2014,08,10,04,49,13.40
2014,08,10,04,50,13.40
2014,08,10,04,51,13.40
2014,08,10,04,52,13.40
2014,08,10,04,53,13.40
2014,08,10,04,54,13.40
2014,08,10,04,55,13.40
2014,08,10,04,56,13.40
2014,08,10,04,57,13.40
2014,08,10,04,58,13.40
2014,08,10,04,59,13.40
2014,08,10,05,00,13.40
2014,08,10,05,01,13.40
2014,08,10,05,02,13.40
2014,08,10,05,03,13.40
2014,08,10,05,04,13.40
2014,08,10,05,05,13.40
2014,08,10,05,06,13.40
2014,08,10,05,07,13.40
2014,08,10,05,08,13.40
2014,08,10,05,09,13.40
2014,08,10,05,10,13.40
2014,08,10,05,11,13.40
2014,08,10,05,12,13.40
2014,08,10,05,13,13.40
2014,08,10,05,14,13.40
2014,08,10,05,15,13.40
2014,08,10,05,16,13.50
2014,08,10,05,17,13.50
2014,08,10,05,18,13.50
2014,08,10,05,19,13.50
2014,08,10,05,20,13.50
2014,08,10,05,21,13.50
2014,08,10,05,22,13.50
2014,08,10,05,23,13.50
2014,08,10,05,24,13.40
2014,08,10,05,25,13.50
2014,08,10,05,26,13.50
2014,08,10,05,27,13.50
2014,08,10,05,28,13.50
2014,08,10,05,29,13.50
2014,08,10,05,30,13.40
2014,08,10,05,31,13.40
2014,08,10,05,32,13.40
2014,08,10,05,33,13.40
2014,08,10,05,34,13.40
2014,08,10,05,35,13.40
2014,08,10,05,36,13.40
2014,08,10,05,37,13.40
2014,08,10,05,38,13.30
2014,08,10,05,39,13.30
2014,08,10,05,40,13.30
2014,08,10,05,41,13.30
2014,08,10,05,42,13.30
2014,08,10,05,43,13.30
2014,08,10,05,44,13.30
2014,08,10,05,45,13.30
2014,08,10,05,46,13.30
2014,08,10,05,47,13.20
2014,08,10,05,48,13.20
2014,08,10,05,49,13.20
2014,08,10,05,50,13.20
2014,08,10,05,51,13.20
2014,08,10,05,52,13.20
2014,08,10,05,53,13.20
2014,08,10,05,54,13.20
2014,08,10,05,55,13.10
2014,08,10,05,56,13.10
2014,08,10,05,57,13.10
2014,08,10,05,58,13.10
2014,08,10,05,59,13.10
2014,08,10,06,00,13.10
2014,08,10,06,01,13.10
2014,08,10,06,02,13.10
2014,08,10,06,03,13.00
2014,08,10,06,04,13.00
2014,08,10,06,05,13.00
2014,08,10,06,06,13.00
2014,08,10,06,07,13.00
2014,08,10,06,08,12.90
2014,08,10,06,09,12.90
2014,08,10,06,10,12.90
2014,08,10,06,11,12.90
2014,08,10,06,12,12.90
2014,08,10,06,13,12.90
2014,08,10,06,14,12.90
2014,08,10,06,15,12.90
2014,08,10,06,16,12.90
2014,08,10,06,17,12.90
2014,08,10,06,18,12.90
2014,08,10,06,19,12.90
2014,08,10,06,20,12.90
2014,08,10,06,21,12.90
2014,08,10,06,22,12.90
2014,08,10,06,23,12.90
2014,08,10,06,24,12.90
2014,08,10,06,25,12.90
2014,08,10,06,26,13.00
2014,08,10,06,27,13.00
2014,08,10,06,28,13.00
2014,08,10,06,29,13.00
2014,08,10,06,30,13.00
2014,08,10,06,31,13.00
2014,08,10,06,32,13.10
2014,08,10,06,33,13.10
2014,08,10,06,34,13.10
2014,08,10,06,35,13.10
2014,08,10,06,36,13.10
2014,08,10,06,37,13.10
2014,08,10,06,38,13.10
2014,08,10,06,39,13.10
2014,08,10,06,40,13.10
2014,08,10,06,41,13.10
2014,08,10,06,42,13.10
2014,08,10,06,43,13.10
2014,08,10,06,44,13.10
2014,08,10,06,45,13.10
2014,08,10,06,46,13.10
2014,08,10,06,47,13.10
2014,08,10,06,48,13.10
2014,08,10,06,49,13.10
2014,08,10,06,50,13.10
2014,08,10,06,51,13.10
2014,08,10,06,52,13.10
2014,08,10,06,53,13.10
2014,08,10,06,54,13.10
2014,08,10,06,55,13.10
2014,08,10,06,56,13.10
2014,08,10,06,57,13.20
2014,08,10,06,58,13.20
2014,08,10,06,59,13.20
2014,08,10,07,00,13.20
2014,08,10,07,01,13.20
2014,08,10,07,02,13.20
2014,08,10,07,03,13.20
2014,08,10,07,04,13.20
2014,08,10,07,05,13.20
2014,08,10,07,06,13.20
2014,08,10,07,07,13.30
2014,08,10,07,08,13.30
2014,08,10,07,09,13.30
2014,08,10,07,10,13.30
2014,08,10,07,11,13.30
2014,08,10,07,12,13.40
2014,08,10,07,13,13.40
2014,08,10,07,14,13.40
2014,08,10,07,15,13.40
2014,08,10,07,16,13.40
2014,08,10,07,17,13.40
2014,08,10,07,18,13.40
2014,08,10,07,19,13.50
2014,08,10,07,20,13.50
2014,08,10,07,21,13.60
2014,08,10,07,22,13.60
2014,08,10,07,23,13.70
2014,08,10,07,24,13.70
2014,08,10,07,25,13.70
2014,08,10,07,26,13.80
2014,08,10,07,27,13.80
2014,08,10,07,28,13.90
2014,08,10,07,29,13.90
2014,08,10,07,30,14.00
2014,08,10,07,31,14.00
2014,08,10,07,32,14.00
2014,08,10,07,33,14.10
2014,08,10,07,34,14.10
2014,08,10,07,35,14.10
2014,08,10,07,36,14.10
2014,08,10,07,37,14.20
2014,08,10,07,38,14.20
2014,08,10,07,39,14.20
2014,08,10,07,40,14.20
2014,08,10,07,41,14.20
2014,08,10,07,42,14.30
2014,08,10,07,43,14.30
2014,08,10,07,44,14.30
2014,08,10,07,45,14.30
2014,08,10,07,46,14.40
2014,08,10,07,47,14.40
2014,08,10,07,48,14.40
2014,08,10,07,49,14.50
2014,08,10,07,50,14.60
2014,08,10,07,51,14.60
2014,08,10,07,52,14.60
2014,08,10,07,53,14.70
2014,08,10,07,54,14.70
2014,08,10,07,55,14.80
2014,08,10,07,56,14.80
2014,08,10,07,57,14.80
2014,08,10,07,58,14.90
2014,08,10,07,59,14.90
2014,08,10,08,00,14.90
2014,08,10,08,01,15.00
2014,08,10,08,02,15.00
2014,08,10,08,03,15.10
2014,08,10,08,04,15.10
2014,08,10,08,05,15.20
2014,08,10,08,06,15.20
2014,08,10,08,07,15.20
2014,08,10,08,08,15.30
2014,08,10,08,09,15.30
2014,08,10,08,10,15.40
2014,08,10,08,11,15.50
2014,08,10,08,12,15.50
2014,08,10,08,13,15.60
2014,08,10,08,14,15.70
2014,08,10,08,15,15.70
2014,08,10,08,16,15.80
2014,08,10,08,17,15.80
2014,08,10,08,18,15.80
2014,08,10,08,19,15.90
2014,08,10,08,20,16.00
2014,08,10,08,21,16.00
2014,08,10,08,22,16.10
2014,08,10,08,23,16.20
2014,08,10,08,24,16.30
2014,08,10,08,25,16.40
2014,08,10,08,26,16.50
2014,08,10,08,27,16.60
2014,08,10,08,28,16.70
2014,08,10,08,29,16.80
2014,08,10,08,30,16.80
2014,08,10,08,31,16.90
2014,08,10,08,32,17.00
2014,08,10,08,33,17.10
2014,08,10,08,34,17.20
2014,08,10,08,35,17.30
2014,08,10,08,36,17.40
2014,08,10,08,37,17.40
2014,08,10,08,38,17.50
2014,08,10,08,39,17.60
2014,08,10,08,40,17.70
2014,08,10,08,41,17.80
2014,08,10,08,42,17.90
2014,08,10,08,43,18.00
2014,08,10,08,44,18.00
2014,08,10,08,45,18.10
2014,08,10,08,46,18.20
2014,08,10,08,47,18.20
2014,08,10,08,48,18.30
2014,08,10,08,49,18.30
2014,08,10,08,50,18.30
2014,08,10,08,51,18.40
2014,08,10,08,52,18.40
2014,08,10,08,53,18.50
2014,08,10,08,54,18.50
2014,08,10,08,55,18.60
2014,08,10,08,56,18.70
2014,08,10,08,57,18.70
2014,08,10,08,58,18.70
2014,08,10,08,59,18.80
2014,08,10,09,00,18.80
2014,08,10,09,01,18.90
2014,08,10,09,02,18.90
2014,08,10,09,03,19.00
2014,08,10,09,04,19.10
2014,08,10,09,05,19.10
2014,08,10,09,06,19.20
2014,08,10,09,07,19.30
2014,08,10,09,08,19.40
2014,08,10,09,09,19.40
2014,08,10,09,10,19.50
2014,08,10,09,11,19.60
2014,08,10,09,12,19.70
2014,08,10,09,13,19.80
2014,08,10,09,14,19.90
2014,08,10,09,15,20.00
2014,08,10,09,16,20.10
2014,08,10,09,17,20.20
2014,08,10,09,18,20.30
2014,08,10,09,19,20.30
2014,08,10,09,20,20.40
2014,08,10,09,21,20.50
2014,08,10,09,22,20.50
2014,08,10,09,23,20.60
2014,08,10,09,24,20.70
2014,08,10,09,25,20.70
2014,08,10,09,26,20.80
2014,08,10,09,27,20.80
2014,08,10,09,28,20.90
2014,08,10,09,29,20.90
2014,08,10,09,30,21.00
2014,08,10,09,31,21.00
2014,08,10,09,32,21.10
2014,08,10,09,33,21.20
2014,08,10,09,34,21.20
2014,08,10,09,35,21.30
2014,08,10,09,36,21.30
2014,08,10,09,37,21.40
2014,08,10,09,38,21.40
2014,08,10,09,39,21.50
2014,08,10,09,40,21.60
2014,08,10,09,41,21.60
2014,08,10,09,42,21.70
2014,08,10,09,43,21.80
2014,08,10,09,44,21.90
2014,08,10,09,45,22.00
2014,08,10,09,46,22.00
2014,08,10,09,47,22.10
2014,08,10,09,48,22.20
2014,08,10,09,49,22.20
2014,08,10,09,50,22.20
2014,08,10,09,51,22.20
2014,08,10,09,52,22.20
2014,08,10,09,53,22.20
2014,08,10,09,54,22.20
2014,08,10,09,55,22.20
2014,08,10,09,56,22.20
2014,08,10,09,57,22.10
2014,08,10,09,58,22.10
2014,08,10,09,59,22.10
2014,08,10,10,00,22.20
2014,08,10,10,01,22.20
2014,08,10,10,02,22.30
2014,08,10,10,03,22.30
2014,08,10,10,04,22.40
2014,08,10,10,05,22.50
2014,08,10,10,06,22.60
2014,08,10,10,07,22.70
2014,08,10,10,08,22.70
2014,08,10,10,09,22.80
2014,08,10,10,10,22.90
2014,08,10,10,11,23.00
2014,08,10,10,12,23.10
2014,08,10,10,13,23.20
2014,08,10,10,14,23.30
2014,08,10,10,15,23.30
2014,08,10,10,16,23.40
2014,08,10,10,17,23.50
2014,08,10,10,18,23.60
2014,08,10,10,19,23.80
2014,08,10,10,20,23.90
2014,08,10,10,21,24.00
2014,08,10,10,22,24.00
2014,08,10,10,23,24.10
2014,08,10,10,24,24.10
2014,08,10,10,25,24.20
2014,08,10,10,26,24.10
2014,08,10,10,27,24.10
2014,08,10,10,28,24.10
2014,08,10,10,29,24.10
2014,08,10,10,30,24.10
2014,08,10,10,31,24.10
2014,08,10,10,32,24.20
2014,08,10,10,33,24.20
2014,08,10,10,34,24.20
2014,08,10,10,35,24.30
2014,08,10,10,36,24.30
2014,08,10,10,37,24.30
2014,08,10,10,38,24.40
2014,08,10,10,39,24.50
2014,08,10,10,40,24.50
2014,08,10,10,41,24.60
2014,08,10,10,42,24.60
2014,08,10,10,43,24.70
2014,08,10,10,44,24.70
2014,08,10,10,45,24.70
2014,08,10,10,46,24.80
2014,08,10,10,47,24.80
2014,08,10,10,48,24.80
2014,08,10,10,49,24.80
2014,08,10,10,50,24.90
2014,08,10,10,51,24.90
2014,08,10,10,52,24.90
2014,08,10,10,53,25.00
2014,08,10,10,54,25.00
2014,08,10,10,55,25.00
2014,08,10,10,56,25.10
2014,08,10,10,57,25.10
2014,08,10,10,58,25.10
2014,08,10,10,59,25.10
2014,08,10,11,00,25.10
2014,08,10,11,01,25.00
2014,08,10,11,02,25.00
2014,08,10,11,03,25.00
2014,08,10,11,04,25.10
2014,08,10,11,05,25.10
2014,08,10,11,06,25.20
2014,08,10,11,07,25.20
2014,08,10,11,08,25.30
2014,08,10,11,09,25.40
2014,08,10,11,10,25.40
2014,08,10,11,11,25.40
2014,08,10,11,12,25.40
2014,08,10,11,13,25.40
2014,08,10,11,14,25.40
2014,08,10,11,15,25.30
2014,08,10,11,16,25.20
2014,08,10,11,17,25.10
2014,08,10,11,18,25.00
2014,08,10,11,19,25.00
2014,08,10,11,20,24.90
2014,08,10,11,21,24.90
2014,08,10,11,22,24.90
2014,08,10,11,23,24.80
2014,08,10,11,24,24.80
2014,08,10,11,25,24.80
2014,08,10,11,26,24.80
2014,08,10,11,27,24.90
2014,08,10,11,28,24.90
2014,08,10,11,29,24.80
2014,08,10,11,30,24.80
2014,08,10,11,31,24.80
2014,08,10,11,32,24.70
2014,08,10,11,33,24.60
2014,08,10,11,34,24.40
2014,08,10,11,35,24.30
2014,08,10,11,36,24.20
2014,08,10,11,37,24.00
2014,08,10,11,38,23.90
2014,08,10,11,39,23.80
2014,08,10,11,40,23.70
2014,08,10,11,41,23.70
2014,08,10,11,42,23.60
2014,08,10,11,43,23.60
2014,08,10,11,44,23.60
2014,08,10,11,45,23.60
2014,08,10,11,46,23.60
2014,08,10,11,47,23.60
2014,08,10,11,48,23.60
2014,08,10,11,49,23.60
2014,08,10,11,50,23.60
2014,08,10,11,51,23.50
2014,08,10,11,52,23.50
2014,08,10,11,53,23.40
2014,08,10,11,54,23.30
2014,08,10,11,55,23.20
2014,08,10,11,56,23.20
2014,08,10,11,57,23.10
2014,08,10,11,58,23.10
2014,08,10,11,59,23.10
2014,08,10,12,00,23.20
2014,08,10,12,01,23.30
2014,08,10,12,02,23.30
2014,08,10,12,03,23.40
2014,08,10,12,04,23.50
2014,08,10,12,05,23.50
2014,08,10,12,06,23.60
2014,08,10,12,07,23.70
2014,08,10,12,08,23.80
2014,08,10,12,09,23.80
2014,08,10,12,10,23.90
2014,08,10,12,11,24.00
2014,08,10,12,12,24.00
2014,08,10,12,13,24.10
2014,08,10,12,14,24.20
2014,08,10,12,15,24.20
2014,08,10,12,16,24.30
2014,08,10,12,17,24.40
2014,08,10,12,18,24.40
2014,08,10,12,19,24.50
2014,08,10,12,20,24.50
2014,08,10,12,21,24.50
2014,08,10,12,22,24.50
2014,08,10,12,23,24.50
2014,08,10,12,24,24.40
2014,08,10,12,25,24.40
2014,08,10,12,26,24.30
2014,08,10,12,27,24.30
2014,08,10,12,28,24.30
2014,08,10,12,29,24.30
2014,08,10,12,30,24.30
2014,08,10,12,31,24.40
2014,08,10,12,32,24.60
2014,08,10,12,33,24.70
2014,08,10,12,34,24.90
2014,08,10,12,35,25.10
2014,08,10,12,36,25.20
2014,08,10,12,37,25.30
2014,08,10,12,38,25.30
2014,08,10,12,39,25.20
2014,08,10,12,40,25.20
2014,08,10,12,41,25.10
2014,08,10,12,42,25.10
2014,08,10,12,43,25.00
2014,08,10,12,44,25.00
2014,08,10,12,45,25.00
2014,08,10,12,46,25.00
2014,08,10,12,47,25.00
2014,08,10,12,48,25.00
2014,08,10,12,49,25.10
2014,08,10,12,50,25.20
2014,08,10,12,51,25.30
2014,08,10,12,52,25.40
2014,08,10,12,53,25.60
2014,08,10,12,54,25.60
2014,08,10,12,55,25.60
2014,08,10,12,56,25.60
2014,08,10,12,57,25.60
2014,08,10,12,58,25.70
2014,08,10,12,59,25.80
2014,08,10,13,00,26.00
2014,08,10,13,01,26.10
2014,08,10,13,02,26.20
2014,08,10,13,03,26.30
2014,08,10,13,04,26.40
2014,08,10,13,05,26.40
2014,08,10,13,06,26.40
2014,08,10,13,07,26.40
2014,08,10,13,08,26.40
2014,08,10,13,09,26.50
2014,08,10,13,10,26.60
2014,08,10,13,11,26.60
2014,08,10,13,12,26.60
2014,08,10,13,13,26.60
2014,08,10,13,14,26.50
2014,08,10,13,15,26.40
2014,08,10,13,16,26.30
2014,08,10,13,17,26.10
2014,08,10,13,18,26.00
2014,08,10,13,19,25.90
2014,08,10,13,20,25.80
2014,08,10,13,21,25.60
2014,08,10,13,22,25.50
2014,08,10,13,23,25.30
2014,08,10,13,24,25.20
2014,08,10,13,25,25.10
2014,08,10,13,26,25.00
2014,08,10,13,27,24.90
2014,08,10,13,28,24.90
2014,08,10,13,29,24.90
2014,08,10,13,30,24.90
2014,08,10,13,31,25.00
2014,08,10,13,32,25.00
2014,08,10,13,33,25.10
2014,08,10,13,34,25.10
2014,08,10,13,35,25.10
2014,08,10,13,36,25.00
2014,08,10,13,37,24.90
2014,08,10,13,38,24.80
2014,08,10,13,39,24.70
2014,08,10,13,40,24.60
2014,08,10,13,41,24.50
2014,08,10,13,42,24.40
2014,08,10,13,43,24.30
2014,08,10,13,44,24.30
2014,08,10,13,45,24.20
2014,08,10,13,46,24.30
2014,08,10,13,47,24.30
2014,08,10,13,48,24.30
2014,08,10,13,49,24.30
2014,08,10,13,50,24.30
2014,08,10,13,51,24.40
2014,08,10,13,52,24.50
2014,08,10,13,53,24.50
2014,08,10,13,54,24.60
2014,08,10,13,55,24.70
2014,08,10,13,56,24.80
2014,08,10,13,57,24.90
2014,08,10,13,58,24.90
2014,08,10,13,59,24.90
2014,08,10,14,00,25.00
2014,08,10,14,01,24.90
2014,08,10,14,02,24.80
2014,08,10,14,03,24.70
2014,08,10,14,04,24.60
2014,08,10,14,05,24.60
2014,08,10,14,06,24.50
2014,08,10,14,07,24.50
2014,08,10,14,08,24.40
2014,08,10,14,09,24.40
2014,08,10,14,10,24.30
2014,08,10,14,11,24.30
2014,08,10,14,12,24.20
2014,08,10,14,13,24.20
2014,08,10,14,14,24.10
2014,08,10,14,15,24.10
2014,08,10,14,16,24.10
2014,08,10,14,17,24.10
2014,08,10,14,18,24.10
2014,08,10,14,19,24.10
2014,08,10,14,20,24.00
2014,08,10,14,21,24.00
2014,08,10,14,22,24.00
2014,08,10,14,23,24.10
2014,08,10,14,24,24.10
2014,08,10,14,25,24.10
2014,08,10,14,26,24.20
2014,08,10,14,27,24.20
2014,08,10,14,28,24.30
2014,08,10,14,29,24.30
2014,08,10,14,30,24.40
2014,08,10,14,31,24.40
2014,08,10,14,32,24.50
2014,08,10,14,33,24.60
2014,08,10,14,34,24.70
2014,08,10,14,35,24.70
2014,08,10,14,36,24.80
2014,08,10,14,37,24.80
2014,08,10,14,38,24.90
2014,08,10,14,39,25.00
2014,08,10,14,40,25.00
2014,08,10,14,41,25.10
2014,08,10,14,42,25.10
2014,08,10,14,43,25.10
2014,08,10,14,44,25.20
2014,08,10,14,45,25.20
2014,08,10,14,46,25.30
2014,08,10,14,47,25.30
2014,08,10,14,48,25.40
2014,08,10,14,49,25.40
2014,08,10,14,50,25.40
2014,08,10,14,51,25.50
2014,08,10,14,52,25.60
2014,08,10,14,53,25.70
2014,08,10,14,54,25.80
2014,08,10,14,55,25.90
2014,08,10,14,56,26.00
2014,08,10,14,57,26.20
2014,08,10,14,58,26.30
2014,08,10,14,59,26.40
2014,08,10,15,00,26.40
2014,08,10,15,01,26.50
2014,08,10,15,02,26.60
2014,08,10,15,03,26.80
2014,08,10,15,04,26.90
2014,08,10,15,05,27.00
2014,08,10,15,06,27.10
2014,08,10,15,07,27.20
2014,08,10,15,08,27.30
2014,08,10,15,09,27.30
2014,08,10,15,10,27.30
2014,08,10,15,11,27.30
2014,08,10,15,12,27.30
2014,08,10,15,13,27.30
2014,08,10,15,14,27.30
2014,08,10,15,15,27.30
2014,08,10,15,16,27.30
2014,08,10,15,17,27.30
2014,08,10,15,18,27.30
2014,08,10,15,19,27.40
2014,08,10,15,20,27.40
2014,08,10,15,21,27.50
2014,08,10,15,22,27.50
2014,08,10,15,23,27.50
2014,08,10,15,24,27.50
2014,08,10,15,25,27.50
2014,08,10,15,26,27.50
2014,08,10,15,27,27.60
2014,08,10,15,28,27.50
2014,08,10,15,29,27.50
2014,08,10,15,30,27.50
2014,08,10,15,31,27.50
2014,08,10,15,32,27.50
2014,08,10,15,33,27.50
2014,08,10,15,34,27.50
2014,08,10,15,35,27.50
2014,08,10,15,36,27.50
2014,08,10,15,37,27.50
2014,08,10,15,38,27.60
2014,08,10,15,39,27.60
2014,08,10,15,40,27.50
2014,08,10,15,41,27.40
2014,08,10,15,42,27.40
2014,08,10,15,43,27.40
2014,08,10,15,44,27.30
2014,08,10,15,45,27.30
2014,08,10,15,46,27.30
2014,08,10,15,47,27.40
2014,08,10,15,48,27.40
2014,08,10,15,49,27.60
2014,08,10,15,50,27.70
2014,08,10,15,51,27.80
2014,08,10,15,52,27.80
2014,08,10,15,53,27.80
2014,08,10,15,54,27.80
2014,08,10,15,55,27.90
2014,08,10,15,56,27.90
2014,08,10,15,57,28.00
2014,08,10,15,58,28.00
2014,08,10,15,59,28.10
2014,08,10,16,00,28.10
2014,08,10,16,01,28.20
2014,08,10,16,02,28.30
2014,08,10,16,03,28.30
2014,08,10,16,04,28.30
2014,08,10,16,05,28.30
2014,08,10,16,06,28.30
2014,08,10,16,07,28.30
2014,08,10,16,08,28.20
2014,08,10,16,09,28.20
2014,08,10,16,10,28.20
2014,08,10,16,11,28.20
2014,08,10,16,12,28.20
2014,08,10,16,13,28.20
2014,08,10,16,14,28.20
2014,08,10,16,15,28.30
2014,08,10,16,16,28.30
2014,08,10,16,17,28.30
2014,08,10,16,18,28.30
2014,08,10,16,19,28.30
2014,08,10,16,20,28.30
2014,08,10,16,21,28.40
2014,08,10,16,22,28.40
2014,08,10,16,23,28.50
2014,08,10,16,24,28.50
2014,08,10,16,25,28.60
2014,08,10,16,26,28.60
2014,08,10,16,27,28.70
2014,08,10,16,28,28.80
2014,08,10,16,29,28.80
2014,08,10,16,30,28.80
2014,08,10,16,31,28.80
2014,08,10,16,32,28.80
2014,08,10,16,33,28.80
2014,08,10,16,34,28.80
2014,08,10,16,35,28.80
2014,08,10,16,36,28.70
2014,08,10,16,37,28.60
2014,08,10,16,38,28.50
2014,08,10,16,39,28.50
2014,08,10,16,40,28.40
2014,08,10,16,41,28.30
2014,08,10,16,42,28.20
2014,08,10,16,43,28.10
2014,08,10,16,44,28.10
2014,08,10,16,45,28.00
2014,08,10,16,46,27.90
2014,08,10,16,47,27.80
2014,08,10,16,48,27.60
2014,08,10,16,49,27.50
2014,08,10,16,50,27.40
2014,08,10,16,51,27.30
2014,08,10,16,52,27.20
2014,08,10,16,53,27.10
2014,08,10,16,54,27.00
2014,08,10,16,55,26.80
2014,08,10,16,56,26.80
2014,08,10,16,57,26.70
2014,08,10,16,58,26.70
2014,08,10,16,59,26.60
2014,08,10,17,00,26.60
2014,08,10,17,01,26.60
2014,08,10,17,02,26.60
2014,08,10,17,03,26.60
2014,08,10,17,04,26.70
2014,08,10,17,05,26.70
2014,08,10,17,06,26.80
2014,08,10,17,07,26.80
2014,08,10,17,08,26.80
2014,08,10,17,09,26.90
2014,08,10,17,10,26.90
2014,08,10,17,11,26.90
2014,08,10,17,12,26.90
2014,08,10,17,13,27.00
2014,08,10,17,14,27.00
2014,08,10,17,15,27.10
2014,08,10,17,16,27.10
2014,08,10,17,17,27.20
2014,08,10,17,18,27.20
2014,08,10,17,19,27.30